, AK

(GMT )
Portage Glacier

Weather History for PATO - January, 2013

Change the Weather History Date:

Monday, January 7, 2013

  Actual Average Record
Temperature  
Mean Temperature 34 °F -  
Max Temperature 37 °F - - ()
Min Temperature 32 °F - - ()
Degree Days  
Heating Degree Days 30    
Moisture  
Dew Point 32 °F    
Average Humidity 91    
Maximum Humidity 100    
Minimum Humidity 73    
Precipitation  
Precipitation 0.89 in - - ()
Sea Level Pressure  
Sea Level Pressure 29.17 in    
Wind  
Wind Speed 14 mph (ESE)    
Max Wind Speed 24 mph    
Max Gust Speed 45 mph    
Visibility 3 miles    
Events Fog , Rain , Snow    
Averages and records for this station are not official NWS values.
T = Trace of Precipitation, MM = Missing Value Source: NWS Daily Summary

Daily Weather History Graph

Daily Weather History Graph

Search for Another Location

Airport or City:

Trip Planner

Search our weather history database for the weather conditions in past years. The results will help you decide how hot, cold, wet, or windy it might be!

Date:

Astronomy

Jan. 07, 2013 Rise Set
Actual Time 9:59 AM AKST 4:04 PM AKST
Civil Twilight 9:02 AM AKST 5:02 PM AKST
Nautical Twilight 8:05 AM AKST 5:59 PM AKST
Astronomical Twilight 7:12 AM AKST 6:51 PM AKST
Moon 5:15 AM AKST (1/7) 12:38 PM AKST (1/7)
Length of Visible Light 7h 59m
Length of Day
6h 04m
Waning Crescent, 21% of the Moon is Illuminated
Jan 7
Waning Crescent
Jan 11
New
Jan 18
First Quarter
Jan 26
Full
Feb 3
Last Quarter

Hourly Weather History & Observations

Time (AKST) Temp. Windchill Dew Point Humidity Pressure Visibility Wind Dir Wind Speed Gust Speed Precip Events Conditions
12:19 AM 37.0 °F 26.2 °F 30.0 °F 76% 29.10 in 7.0 mi ENE 21.9 mph 32.2 mph 0.00 in Rain Light Rain
12:53 AM 37.9 °F 27.6 °F 30.0 °F 73% 29.10 in 8.0 mi East 20.7 mph 33.4 mph 0.01 in Rain Light Rain
1:37 AM 37.0 °F 27.7 °F 32.0 °F 82% 29.09 in 4.0 mi East 16.1 mph 35.7 mph 0.02 in Rain Light Rain
1:47 AM 35.6 °F 26.2 °F 32.0 °F 87% 29.10 in 1.8 mi ENE 15.0 mph 29.9 mph 0.05 in Snow Light Snow
1:53 AM 36.0 °F 25.0 °F 32.0 °F 86% 29.10 in 2.0 mi East 20.7 mph 32.2 mph 0.06 in Snow Light Snow
2:03 AM 37.0 °F 26.7 °F 32.0 °F 82% 29.09 in 9.0 mi East 19.6 mph 39.1 mph 0.00 in Rain Light Rain
3:12 AM 37.0 °F 25.6 °F 30.9 °F 79% 29.09 in 7.0 mi East 24.2 mph 43.7 mph 0.00 in Snow Light Snow
3:44 AM 36.0 °F 26.3 °F 30.9 °F 82% 29.09 in 2.5 mi ENE 16.1 mph 34.5 mph 0.02 in Snow Light Snow
3:53 AM 35.1 °F 27.4 °F 32.0 °F 89% 29.11 in 1.8 mi East 10.4 mph 20.7 mph 0.05 in Snow Light Snow
4:02 AM 35.1 °F 24.5 °F 32.0 °F 89% 29.09 in 2.0 mi East 18.4 mph 28.8 mph 0.02 in Snow Light Snow
4:24 AM 36.0 °F 25.0 °F 30.9 °F 82% 29.09 in 3.0 mi ENE 20.7 mph 44.9 mph 0.05 in Snow Light Snow
4:31 AM 36.0 °F 25.6 °F 32.0 °F 86% 29.08 in 3.0 mi ESE 18.4 mph 44.9 mph 0.05 in Snow Light Snow
4:53 AM 35.1 °F 26.4 °F 32.0 °F 89% 29.09 in 2.5 mi ESE 12.7 mph 27.6 mph 0.08 in Snow Light Snow
5:02 AM 35.1 °F 26.4 °F 32.0 °F 89% 29.10 in 2.0 mi ESE 12.7 mph 25.3 mph 0.01 in Snow Light Snow
5:42 AM 36.0 °F 27.5 °F 32.0 °F 86% 29.09 in 3.0 mi ESE 12.7 mph 27.6 mph 0.08 in Snow Light Snow
5:53 AM 35.1 °F 25.2 °F 32.0 °F 89% 29.09 in 3.0 mi ENE 16.1 mph 31.1 mph 0.09 in Snow Light Snow
6:01 AM 34.0 °F - 32.0 °F 92% 29.09 in 2.0 mi North - - 0.01 in Snow Light Snow
6:13 AM 34.0 °F 26.0 °F 32.0 °F 92% 29.10 in 1.5 mi SSE 10.4 mph 20.7 mph 0.04 in Snow Light Snow
6:25 AM 34.0 °F 23.8 °F 32.0 °F 92% 29.10 in 1.2 mi East 16.1 mph 21.9 mph 0.07 in Snow Light Snow
6:48 AM 33.8 °F 25.8 °F 32.0 °F 93% 29.10 in 0.8 mi SE 10.4 mph 20.7 mph 0.13 in Snow Light Snow
6:53 AM 33.1 °F 24.9 °F 32.0 °F 96% 29.10 in 1.0 mi SE 10.4 mph 21.9 mph 0.14 in Snow Light Snow
7:32 AM 35.1 °F 25.9 °F 30.9 °F 85% 29.11 in 2.0 mi East 13.8 mph 29.9 mph 0.06 in Snow Light Snow
7:53 AM 35.1 °F 26.4 °F 30.9 °F 85% 29.12 in 2.0 mi ESE 12.7 mph 34.5 mph 0.08 in Snow Light Snow
8:02 AM 34.0 °F 25.5 °F 32.0 °F 92% 29.13 in 1.0 mi ESE 11.5 mph 28.8 mph 0.03 in Snow Light Snow
8:04 AM 33.1 °F 24.9 °F 32.0 °F 96% 29.13 in 0.8 mi East 10.4 mph 28.8 mph 0.03 in Snow Light Snow
8:13 AM 32.0 °F 24.2 °F 32.0 °F 100% 29.13 in 1.0 mi SSE 9.2 mph 23.0 mph 0.06 in Snow Light Snow
8:38 AM 33.1 °F 23.9 °F 32.0 °F 96% 29.13 in 2.0 mi SE 12.7 mph 21.9 mph 0.09 in Snow Light Snow
8:48 AM 33.8 °F 25.8 °F 32.0 °F 93% 29.13 in 4.0 mi SE 10.4 mph 20.7 mph 0.09 in Snow Light Snow
8:53 AM 34.0 °F 25.0 °F 32.0 °F 92% 29.13 in 4.0 mi ESE 12.7 mph 25.3 mph 0.09 in Snow Light Snow
9:01 AM 34.0 °F 24.6 °F 32.0 °F 92% 29.13 in 2.0 mi SE 13.8 mph 26.5 mph 0.01 in Snow Light Snow
9:12 AM 34.0 °F 26.6 °F 32.0 °F 92% 29.14 in 1.8 mi SE 9.2 mph 20.7 mph 0.02 in Snow Light Snow
9:37 AM 34.0 °F 26.6 °F 32.0 °F 92% 29.15 in 2.0 mi SE 9.2 mph 21.9 mph 0.05 in Snow Light Snow
9:44 AM 33.1 °F 24.4 °F 32.0 °F 96% 29.16 in 1.2 mi SE 11.5 mph 20.7 mph 0.06 in Snow Light Snow
10:13 AM 35.1 °F 27.4 °F 30.9 °F 85% 29.16 in 2.5 mi SE 10.4 mph 25.3 mph 0.01 in Snow Light Snow
10:28 AM 35.1 °F 25.2 °F 30.9 °F 85% 29.16 in 3.0 mi East 16.1 mph 26.5 mph 0.02 in Snow Light Snow
10:53 AM 34.0 °F 25.0 °F 30.9 °F 89% 29.17 in 3.0 mi SE 12.7 mph 25.3 mph 0.03 in Snow Light Snow
11:02 AM 34.0 °F 25.0 °F 32.0 °F 92% 29.17 in 2.5 mi ESE 12.7 mph 24.2 mph 0.00 in Snow Light Snow
11:13 AM 34.0 °F 25.5 °F 32.0 °F 92% 29.17 in 1.8 mi SE 11.5 mph 25.3 mph 0.01 in Snow Light Snow
11:35 AM 35.1 °F 27.4 °F 32.0 °F 89% 29.16 in 3.0 mi East 10.4 mph 23.0 mph 0.03 in Snow Light Snow
11:53 AM 34.0 °F 23.0 °F 30.9 °F 89% 29.18 in 1.8 mi East 18.4 mph 27.6 mph 0.03 in Snow Light Snow
12:03 PM 35.1 °F 26.9 °F 30.9 °F 85% 29.17 in 2.0 mi ESE 11.5 mph 27.6 mph 0.01 in Snow Light Snow
12:16 PM 33.1 °F 25.5 °F 32.0 °F 96% 29.18 in 1.2 mi SE 9.2 mph 29.9 mph 0.01 in Snow Light Snow
12:29 PM 34.0 °F 25.0 °F 32.0 °F 92% 29.18 in 2.0 mi SE 12.7 mph 23.0 mph 0.02 in Snow Light Snow
12:38 PM 34.0 °F 25.0 °F 30.9 °F 89% 29.17 in 5.0 mi SSE 12.7 mph 25.3 mph 0.02 in Snow Light Snow
12:53 PM 34.0 °F 25.0 °F 32.0 °F 92% 29.18 in 3.0 mi SSE 12.7 mph 23.0 mph 0.02 in Snow Light Snow
1:04 PM 34.0 °F 24.2 °F 32.0 °F 92% 29.18 in 2.0 mi SSE 15.0 mph 25.3 mph 0.01 in Snow Light Snow
1:12 PM 33.1 °F 25.5 °F 32.0 °F 96% 29.19 in 1.0 mi SSE 9.2 mph 23.0 mph 0.01 in Snow Light Snow
1:20 PM 33.1 °F 25.5 °F 32.0 °F 96% 29.19 in 0.8 mi SSE 9.2 mph 19.6 mph 0.03 in Snow Light Snow
1:28 PM 32.0 °F 24.8 °F 32.0 °F 100% 29.19 in 0.5 mi SSE 8.1 mph 24.2 mph 0.04 in Fog , Snow Snow
1:46 PM 33.1 °F 25.5 °F 32.0 °F 96% 29.19 in 1.2 mi SE 9.2 mph 19.6 mph 0.06 in Snow Light Snow
1:53 PM 33.1 °F 25.5 °F 32.0 °F 96% 29.20 in 1.5 mi SE 9.2 mph 18.4 mph 0.06 in Snow Light Snow
1:58 PM 34.0 °F 28.0 °F 33.1 °F 96% 29.20 in 2.5 mi Variable 6.9 mph 18.4 mph 0.00 in Snow Light Snow
2:05 PM 35.1 °F 27.4 °F 32.0 °F 89% 29.20 in 4.0 mi SE 10.4 mph 20.7 mph 0.00 in Snow Light Snow
2:14 PM 34.0 °F 26.0 °F 32.0 °F 92% 29.20 in 1.8 mi SSE 10.4 mph 21.9 mph 0.01 in Snow Light Snow
2:31 PM 33.1 °F 24.4 °F 32.0 °F 96% 29.20 in 2.5 mi SSE 11.5 mph 20.7 mph 0.02 in Snow Light Snow
2:44 PM 33.1 °F 24.4 °F 32.0 °F 96% 29.21 in 1.5 mi SSE 11.5 mph 23.0 mph 0.03 in Snow Light Snow
2:53 PM 34.0 °F 26.6 °F 32.0 °F 92% 29.21 in 1.0 mi SSE 9.2 mph 21.9 mph 0.04 in Snow Light Snow
3:03 PM 33.1 °F 24.4 °F 32.0 °F 96% 29.21 in 1.5 mi South 11.5 mph 20.7 mph 0.00 in Snow Light Snow
3:07 PM 34.0 °F 26.0 °F 33.1 °F 96% 29.21 in 2.0 mi SE 10.4 mph 20.7 mph 0.01 in Snow Light Snow
3:17 PM 33.1 °F 25.5 °F 32.0 °F 96% 29.21 in 3.0 mi SE 9.2 mph 24.2 mph 0.01 in Snow Light Snow
3:35 PM 33.1 °F 22.6 °F 32.0 °F 96% 29.22 in 2.0 mi SE 16.1 mph 23.0 mph 0.02 in Snow Light Snow
3:53 PM 35.1 °F 27.4 °F 33.1 °F 92% 29.23 in 3.0 mi SE 10.4 mph 21.9 mph 0.03 in Snow Light Snow
4:53 PM 34.0 °F 26.0 °F 32.0 °F 92% 29.24 in 3.0 mi SE 10.4 mph 19.6 mph 0.03 in Snow Light Snow
5:53 PM 35.1 °F 27.9 °F 33.1 °F 92% 29.26 in 4.0 mi ESE 9.2 mph 19.6 mph 0.03 in Snow Light Snow
6:53 PM 34.0 °F 25.5 °F 32.0 °F 92% 29.27 in 8.0 mi SE 11.5 mph - 0.01 in Snow Light Snow
7:53 PM 36.0 °F 28.0 °F 30.9 °F 82% 29.29 in 9.0 mi SSE 11.5 mph 18.4 mph 0.00 in Snow Light Snow
8:25 PM 35.1 °F - 32.0 °F 89% 29.30 in 0.8 mi North - - 0.00 in   Overcast
8:32 PM 35.1 °F 29.3 °F 30.9 °F 85% 29.30 in - Variable 6.9 mph - 0.00 in   Overcast
8:53 PM 34.0 °F 28.8 °F 32.0 °F 92% 29.31 in - Variable 5.8 mph - 0.00 in Snow Light Snow
9:27 PM 34.0 °F 28.8 °F 33.1 °F 96% 29.32 in - Variable 5.8 mph - 0.00 in   Overcast
9:53 PM 34.0 °F 29.8 °F 33.1 °F 96% 29.33 in - Variable 4.6 mph - 0.00 in   Overcast
10:14 PM 34.0 °F 31.0 °F 33.1 °F 96% 29.33 in - Variable 3.5 mph - 0.01 in Snow Light Snow
10:40 PM 34.0 °F 29.8 °F 33.1 °F 96% 29.34 in - Variable 4.6 mph - 0.01 in Rain Light Rain
10:53 PM 34.0 °F 31.0 °F 33.1 °F 96% 29.35 in - Variable 3.5 mph - 0.01 in   Overcast
11:53 PM 33.1 °F 26.9 °F 33.1 °F 100% 29.37 in - East 6.9 mph - 0.00 in Snow Light Snow